Location: Starhoo Observatory
(41.8578°N, 70.9669°W)
Time: 09:18:21
(UTC-05:00)

ISS - Visible Passes

Search period start: 27 November 2014 00:00
Search period end: 07 December 2014 00:00
Orbit: 407 x 417 km, 51.6° (Epoch: 27 November)

Date Brightness Start Highest point End Pass type
(mag) Time Alt. Az. Time Alt. Az. Time Alt. Az.
27 Nov -3.3 05:14:57 48° W 05:15:38 65° SW 05:18:54 10° SE visible
28 Nov -1.2 04:27:26 27° ESE 04:27:26 27° ESE 04:29:06 10° ESE visible
28 Nov -1.1 06:00:20 10° W 06:02:05 14° SW 06:03:49 10° SSW visible
29 Nov -1.8 05:12:47 23° SSW 05:12:47 23° SSW 05:15:07 10° S visible
30 Nov -0.4 04:25:22 13° SSE 04:25:22 13° SSE 04:25:47 10° SSE visible
06 Dec -0.9 17:39:33 10° SSE 17:40:21 12° SE 17:40:21 12° SE visible
